This is the latest recevied weather packets stored in our database for station/object KB0BDN-13. If no packets are shown the sender has not sent any weather packets the latest 10 day(s).
| Time | Temp. | Humidity | Pressure | Rain* | Wind** | Luminosity | Snow |
|---|---|---|---|---|---|---|---|
| 1788169593 | 17.22° C | 99% | 1002.3 hPa | 0.76 mm | - | - | - |
| 1788168693 | 17.22° C | 99% | 1002.5 hPa | 0.51 mm | - | - | - |
| 1788167793 | 17.22° C | 99% | 1002.7 hPa | 1.02 mm | - | - | - |
| 1788166893 | 16.67° C | 99% | 1003 hPa | 0.76 mm | - | - | - |
| 1788165993 | 16.67° C | 99% | 1002.7 hPa | 1.78 mm | - | - | - |
| 1788165093 | 16.67° C | 99% | 1003 hPa | 1.78 mm | - | - | - |
| 1788164193 | 16.67° C | 99% | 1002.9 hPa | 1.52 mm | - | - | - |
| 1788164051 | 16.67° C | 99% | 1003.2 hPa | 1.27 mm | - | - | - |
| 1788163293 | 16.67° C | 99% | 1003.2 hPa | 1.02 mm | - | - | - |
| 1788163151 | 16.67° C | 99% | 1003.2 hPa | 1.02 mm | - | - | - |
| 1788162393 | 16.67° C | 99% | 1003.2 hPa | 0.25 mm | - | - | - |
| 1788161493 | 16.67° C | 99% | 1003.8 hPa | 0 mm | - | - | - |
| 1788161351 | 16.67° C | 99% | 1004.1 hPa | 0 mm | - | - | - |
| 1788160593 | 16.67° C | 98% | 1004.1 hPa | 0 mm | - | - | - |
| 1788159693 | 16.67° C | 98% | 1004.4 hPa | 0 mm | - | - | - |
| 1788158793 | 16.67° C | 98% | 1004.5 hPa | 0 mm | - | - | - |
| 1788157892 | 16.67° C | 98% | 1004.6 hPa | 0 mm | - | - | - |
| 1788156992 | 16.67° C | 98% | 1004.2 hPa | 0 mm | - | - | - |
| 1788156092 | 16.67° C | 98% | 1004.7 hPa | 0 mm | - | - | - |
| 1788155192 | 16.11° C | 98% | 1005.2 hPa | 0 mm | - | - | - |
| 1788155051 | 16.11° C | 98% | 1005.7 hPa | 0 mm | - | - | - |
| 1788154292 | 16.11° C | 97% | 1005.7 hPa | 0 mm | - | - | - |
| 1788154151 | 16.11° C | 97% | 1005.6 hPa | 0 mm | - | - | - |
| 1788153392 | 16.11° C | 97% | 1005.6 hPa | 0 mm | - | - | - |
| 1788153251 | 16.11° C | 97% | 1005.8 hPa | 0 mm | - | - | - |
* Rain latest hour (hover to see other rain measurements)
** Current wind speed in m/s (hover to see current wind gust speed)